| time (UTC) | temp F | wind direction | speed knots | gust knots | rain 1hr in | rain 24hr in | rain mn in | humidity % | barometer mb |
| 20260508080045 | 40 | 0 | 0.0 | 0.0 | 0.00 | 0.00 | 0.00 | 69 | 1007.2 |
| 20260508074542 | 41 | 0 | 0.0 | 2.6 | 0.00 | 0.00 | 0.00 | 68 | 1006.9 |
| 20260508073040 | 41 | 0 | 0.0 | 0.9 | 0.00 | 0.00 | 0.00 | 66 | 1006.9 |
| 20260508071539 | 41 | 0 | 0.0 | 1.7 | 0.00 | 0.00 | 0.00 | 66 | 1007.0 |
| 20260508070043 | 41 | 21 | 0.0 | 0.9 | 0.00 | 0.00 | 0.00 | 66 | 1007.0 |
| 20260508064542 | 42 | 0 | 0.0 | 2.6 | 0.00 | 0.00 | 0.00 | 65 | 1006.9 |
| 20260508063039 | 42 | 5 | 0.9 | 3.5 | 0.00 | 0.00 | 0.00 | 64 | 1006.9 |
| 20260508061537 | 43 | 344 | 0.9 | 3.5 | 0.00 | 0.00 | 0.00 | 62 | 1007.0 |
| 20260508060038 | 43 | 355 | 1.7 | 5.2 | 0.00 | 0.00 | 0.00 | 63 | 1007.2 |
| 20260508054538 | 43 | 360 | 1.7 | 7.0 | 0.00 | 0.02 | 0.00 | 63 | 1007.3 |
| 20260508053037 | 41 | 5 | 2.6 | 7.0 | 0.00 | 0.02 | 0.00 | 66 | 1007.3 |
| 20260508051534 | 42 | 0 | 0.9 | 3.5 | 0.00 | 0.02 | 0.00 | 67 | 1007.6 |
| 20260508050039 | 42 | 360 | 1.7 | 5.2 | 0.00 | 0.02 | 0.00 | 66 | 1007.8 |
| 20260508044541 | 41 | 346 | 0.9 | 3.5 | 0.00 | 0.20 | 0.00 | 68 | 1007.9 |
| 20260508043036 | 42 | 0 | 0.0 | 2.6 | 0.00 | 0.20 | 0.00 | 68 | 1007.9 |
| 20260508041549 | 43 | 0 | 0.0 | 0.9 | 0.00 | 0.20 | 0.00 | 66 | 1008.1 |
| 20260508040048 | 44 | 0 | 0.0 | 3.5 | 0.00 | 0.20 | 0.00 | 63 | 1007.9 |
| 20260508034541 | 44 | 335 | 1.7 | 3.5 | 0.00 | 0.21 | 0.20 | 62 | 1007.8 |
| 20260508033038 | 45 | 346 | 1.7 | 4.3 | 0.00 | 0.21 | 0.20 | 62 | 1007.9 |
| 20260508031545 | 45 | 0 | 2.6 | 7.8 | 0.00 | 0.21 | 0.20 | 63 | 1008.0 |
| 20260508030054 | 47 | 321 | 0.0 | 4.3 | 0.00 | 0.21 | 0.20 | 59 | 1007.9 |
| 20260508024541 | 48 | 346 | 0.9 | 5.2 | 0.00 | 0.21 | 0.20 | 56 | 1007.7 |
| 20260508023044 | 48 | 5 | 1.7 | 8.7 | 0.00 | 0.21 | 0.20 | 55 | 1007.6 |
| 20260508021537 | 49 | 313 | 2.6 | 7.8 | 0.00 | 0.21 | 0.20 | 54 | 1007.4 |
| 20260508020034 | 49 | 338 | 2.6 | 9.6 | 0.00 | 0.21 | 0.20 | 54 | 1007.3 |
| 20260508014542 | 51 | 26 | 2.6 | 7.0 | 0.00 | 0.23 | 0.20 | 50 | 1007.3 |
| 20260508013039 | 51 | 350 | 4.3 | 8.7 | 0.00 | 0.23 | 0.20 | 47 | 1007.1 |
| 20260508011539 | 51 | 26 | 2.6 | 7.0 | 0.00 | 0.23 | 0.20 | 50 | 1007.1 |
| 20260508010041 | 52 | 340 | 2.6 | 5.2 | 0.00 | 0.23 | 0.20 | 47 | 1006.9 |
| 20260508004542 | 53 | 10 | 1.7 | 9.6 | 0.00 | 0.24 | 0.20 | 45 | 1006.7 |
| 20260508003044 | 53 | 5 | 2.6 | 7.8 | 0.00 | 0.24 | 0.20 | 44 | 1006.3 |
| 20260508001542 | 54 | 5 | 2.6 | 7.8 | 0.00 | 0.24 | 0.20 | 43 | 1006.1 |
| 20260508000038 | 55 | 327 | 2.6 | 10.4 | 0.00 | 0.24 | 0.20 | 43 | 1006.0 |
| 20260507234538 | 56 | 345 | 2.6 | 7.8 | 0.00 | 0.27 | 0.20 | 42 | 1005.9 |
| 20260507233042 | 57 | 30 | 1.7 | 4.3 | 0.00 | 0.27 | 0.20 | 40 | 1005.8 |
| 20260507231550 | 58 | 9 | 3.5 | 7.0 | 0.00 | 0.27 | 0.20 | 40 | 1005.5 |
| 20260507230039 | 58 | 331 | 4.3 | 9.6 | 0.00 | 0.27 | 0.20 | 39 | 1005.2 |
| 20260507224556 | 59 | 9 | 1.7 | 6.1 | 0.00 | 0.42 | 0.20 | 38 | 1005.1 |
| 20260507223047 | 59 | 19 | 1.7 | 9.6 | 0.00 | 0.42 | 0.20 | 39 | 1004.9 |
| 20260507221543 | 61 | 348 | 3.5 | 9.6 | 0.00 | 0.42 | 0.20 | 36 | 1004.8 |
| 20260507220039 | 61 | 257 | 3.5 | 10.4 | 0.00 | 0.42 | 0.20 | 35 | 1004.7 |
| 20260507214539 | 62 | 206 | 3.5 | 10.4 | 0.00 | 0.58 | 0.20 | 35 | 1004.7 |
| 20260507213037 | 62 | 0 | 4.3 | 13.9 | 0.00 | 0.58 | 0.20 | 35 | 1004.6 |
| 20260507211536 | 63 | 347 | 3.5 | 10.4 | 0.00 | 0.58 | 0.20 | 33 | 1004.4 |
| 20260507210107 | 63 | 274 | 3.5 | 8.7 | 0.00 | 0.58 | 0.20 | 35 | 1004.4 |
| 20260507204540 | 60 | 221 | 1.7 | 7.0 | 0.00 | 0.62 | 0.20 | 56 | 1004.2 |
| 20260507203040 | 57 | 89 | 2.6 | 5.2 | 0.00 | 0.62 | 0.20 | 66 | 1004.3 |
| 20260507201537 | 59 | 174 | 0.0 | 8.7 | 0.00 | 0.62 | 0.20 | 65 | 1004.2 |
| 20260507200049 | 60 | 229 | 3.5 | 11.3 | 0.00 | 0.62 | 0.20 | 59 | 1004.2 |
| 20260507194540 | 60 | 157 | 3.5 | 9.6 | 0.00 | 0.64 | 0.20 | 61 | 1004.4 |
| 20260507193102 | 59 | 230 | 5.2 | 11.3 | 0.00 | 0.64 | 0.20 | 62 | 1004.5 |
| 20260507191537 | 59 | 217 | 4.3 | 10.4 | 0.00 | 0.64 | 0.20 | 62 | 1004.7 |
| 20260507190040 | 59 | 223 | 6.1 | 13.0 | 0.00 | 0.64 | 0.20 | 60 | 1004.7 |
| 20260507184542 | 59 | 208 | 4.3 | 13.0 | 0.00 | 0.64 | 0.20 | 62 | 1004.9 |
| 20260507183044 | 60 | 222 | 6.1 | 13.0 | 0.00 | 0.64 | 0.20 | 61 | 1005.0 |
| 20260507181542 | 60 | 165 | 4.3 | 13.0 | 0.00 | 0.64 | 0.20 | 66 | 1005.0 |
| 20260507180037 | 61 | 200 | 3.5 | 12.2 | 0.00 | 0.64 | 0.20 | 61 | 1005.1 |
| 20260507174538 | 59 | 220 | 6.1 | 13.9 | 0.00 | 0.64 | 0.20 | 67 | 1005.2 |
| 20260507173034 | 60 | 152 | 6.1 | 13.9 | 0.00 | 0.64 | 0.20 | 64 | 1005.1 |
| 20260507171546 | 60 | 205 | 4.3 | 11.3 | 0.00 | 0.64 | 0.20 | 64 | 1005.1 |
| 20260507170047 | 60 | 226 | 4.3 | 11.3 | 0.00 | 0.64 | 0.20 | 64 | 1005.2 |
| 20260507164538 | 59 | 234 | 2.6 | 8.7 | 0.00 | 0.64 | 0.20 | 65 | 1005.3 |
| 20260507163038 | 59 | 220 | 3.5 | 8.7 | 0.00 | 0.64 | 0.20 | 65 | 1005.6 |
| 20260507161535 | 59 | 213 | 1.7 | 9.6 | 0.00 | 0.64 | 0.20 | 60 | 1005.7 |
| 20260507160056 | 59 | 355 | 0.9 | 6.1 | 0.00 | 0.64 | 0.20 | 62 | 1005.9 |
| 20260507154536 | 59 | 174 | 2.6 | 10.4 | 0.00 | 0.64 | 0.20 | 66 | 1006.0 |
| 20260507153044 | 58 | 259 | 2.6 | 10.4 | 0.00 | 0.64 | 0.20 | 61 | 1006.2 |
| 20260507151536 | 58 | 217 | 3.5 | 12.2 | 0.00 | 0.64 | 0.20 | 64 | 1006.2 |
| 20260507150038 | 57 | 340 | 2.6 | 7.8 | 0.00 | 0.64 | 0.20 | 66 | 1006.2 |
| 20260507144545 | 57 | 260 | 1.7 | 9.6 | 0.00 | 0.64 | 0.20 | 67 | 1006.5 |
| 20260507143034 | 56 | 236 | 3.5 | 7.0 | 0.00 | 0.64 | 0.20 | 69 | 1006.5 |
| 20260507141542 | 55 | 342 | 1.7 | 7.0 | 0.00 | 0.64 | 0.20 | 71 | 1006.8 |
| 20260507140042 | 55 | 310 | 3.5 | 7.0 | 0.00 | 0.64 | 0.20 | 72 | 1006.9 |
| 20260507134536 | 55 | 309 | 1.7 | 6.1 | 0.00 | 0.64 | 0.20 | 73 | 1006.8 |
| 20260507133035 | 55 | 355 | 2.6 | 7.0 | 0.00 | 0.64 | 0.20 | 73 | 1006.9 |
| 20260507131534 | 53 | 318 | 2.6 | 7.0 | 0.00 | 0.64 | 0.20 | 75 | 1007.0 |
| 20260507130040 | 52 | 342 | 2.6 | 7.8 | 0.00 | 0.64 | 0.20 | 78 | 1007.3 |
| 20260507124541 | 51 | 297 | 2.6 | 9.6 | 0.00 | 0.64 | 0.20 | 81 | 1007.2 |
| 20260507123044 | 50 | 340 | 2.6 | 9.6 | 0.00 | 0.64 | 0.20 | 87 | 1007.1 |
| 20260507121538 | 48 | 330 | 2.6 | 7.8 | 0.00 | 0.64 | 0.20 | 91 | 1007.2 |
| 20260507120036 | 48 | 301 | 2.6 | 5.2 | 0.00 | 0.64 | 0.20 | 94 | 1006.8 |
| 20260507114536 | 47 | 323 | 2.6 | 5.2 | 0.00 | 0.64 | 0.20 | 96 | 1007.1 |
| 20260507113037 | 46 | 5 | 0.9 | 2.6 | 0.00 | 0.64 | 0.20 | 96 | 1007.2 |
| 20260507111552 | 47 | 0 | 0.0 | 2.6 | 0.00 | 0.64 | 0.20 | 96 | 1007.5 |
| 20260507110040 | 46 | 348 | 0.9 | 1.7 | 0.00 | 0.64 | 0.20 | 96 | 1007.1 |
| 20260507104536 | 46 | 26 | 0.9 | 2.6 | 0.00 | 0.64 | 0.20 | 96 | 1007.3 |
| 20260507103036 | 46 | 0 | 0.0 | 1.7 | 0.00 | 0.64 | 0.20 | 96 | 1007.4 |
| 20260507101534 | 46 | 0 | 0.0 | 2.6 | 0.00 | 0.64 | 0.20 | 96 | 1007.1 |
| 20260507100042 | 46 | 0 | 0.9 | 5.2 | 0.00 | 0.64 | 0.20 | 96 | 1006.6 |
| 20260507094542 | 46 | 327 | 1.7 | 4.3 | 0.00 | 0.64 | 0.20 | 96 | 1006.9 |
| 20260507093044 | 46 | 22 | 1.7 | 9.6 | 0.00 | 0.64 | 0.20 | 96 | 1006.3 |
| 20260507091538 | 46 | 325 | 1.7 | 7.8 | 0.00 | 0.64 | 0.20 | 97 | 1006.8 |
| 20260507090043 | 47 | 47 | 2.6 | 9.6 | 0.00 | 0.64 | 0.20 | 97 | 1006.7 |
| 20260507084543 | 47 | 345 | 1.7 | 7.8 | 0.00 | 0.64 | 0.20 | 97 | 1006.6 |
| 20260507083041 | 47 | 351 | 2.6 | 7.8 | 0.00 | 0.64 | 0.20 | 97 | 1006.5 |
| 20260507081540 | 48 | 0 | 1.7 | 5.2 | 0.00 | 0.64 | 0.20 | 97 | 1006.7 |